Time,TemperatureF,DewpointF,PressureIn,WindDirection,WindDirectionDegrees,WindSpeedMPH,WindSpeedGustMPH,Humidity,HourlyPrecipIn,Conditions,Clouds,dailyrainin,SoftwareType,DateUTC
2013-04-13 02:35:00,34.0,18.0,29.95,North,7,7.0,10.0,51,0.00,,,0.00,,2013-04-13 07:35:00,
2013-04-13 02:45:00,34.0,18.0,29.95,North,7,7.0,10.0,51,0.00,,,0.00,,2013-04-13 07:45:00,
2013-04-13 02:56:00,33.0,18.0,29.95,NNE,24,5.0,12.0,53,0.00,,,0.00,,2013-04-13 07:56:00,
2013-04-13 03:06:00,33.0,18.0,29.95,NNE,24,5.0,12.0,53,0.00,,,0.00,,2013-04-13 08:06:00,
2013-04-13 03:15:00,33.0,18.0,29.95,NNE,24,5.0,12.0,53,0.00,,,0.00,,2013-04-13 08:15:00,
2013-04-13 03:35:00,33.0,16.0,29.95,WNW,283,3.0,9.0,50,0.00,,,0.00,,2013-04-13 08:35:00,
2013-04-13 03:47:00,33.0,16.0,29.95,WNW,283,3.0,9.0,50,0.00,,,0.00,,2013-04-13 08:47:00,
2013-04-13 03:54:00,33.0,16.0,29.95,WNW,283,3.0,9.0,50,0.00,,,0.00,,2013-04-13 08:54:00,
2013-04-13 04:05:00,33.0,16.0,29.95,WNW,283,3.0,9.0,50,0.00,,,0.00,,2013-04-13 09:05:00,
2013-04-13 04:14:00,33.0,16.0,29.95,WNW,283,3.0,9.0,50,0.00,,,0.00,,2013-04-13 09:14:00,
2013-04-13 05:05:00,32.0,17.0,29.95,NNE,20,4.0,11.0,54,0.00,,,0.00,,2013-04-13 10:05:00,
2013-04-13 05:15:00,32.0,17.0,29.95,NNE,20,4.0,11.0,54,0.00,,,0.00,,2013-04-13 10:15:00,
2013-04-13 05:24:00,32.0,17.0,29.95,NNE,20,4.0,11.0,54,0.00,,,0.00,,2013-04-13 10:24:00,
2013-04-13 05:36:00,31.0,18.0,29.95,North,356,3.0,8.0,57,0.00,,,0.00,,2013-04-13 10:36:00,
2013-04-13 05:45:00,31.0,18.0,29.95,North,356,3.0,8.0,57,0.00,,,0.00,,2013-04-13 10:45:00,
2013-04-13 05:55:00,31.0,18.0,29.95,North,8,2.0,8.0,58,0.00,,,0.00,,2013-04-13 10:55:00,
2013-04-13 06:05:00,31.0,18.0,29.95,North,8,2.0,8.0,58,0.00,,,0.00,,2013-04-13 11:05:00,
2013-04-13 06:13:00,31.0,18.0,29.95,North,8,2.0,8.0,58,0.00,,,0.00,,2013-04-13 11:13:00,
2013-04-13 06:23:00,30.0,19.0,29.95,WNW,292,2.0,7.0,62,0.00,,,0.00,,2013-04-13 11:23:00,
2013-04-13 06:34:00,30.0,19.0,29.95,West,281,0.0,8.0,63,0.00,,,0.00,,2013-04-13 11:34:00,
2013-04-13 06:44:00,30.0,19.0,29.95,West,281,0.0,8.0,63,0.00,,,0.00,,2013-04-13 11:44:00,
2013-04-13 06:53:00,29.0,18.0,29.95,WNW,288,0.0,8.0,63,0.00,,,0.00,,2013-04-13 11:53:00,
2013-04-13 07:08:00,29.0,18.0,29.95,West,277,3.0,9.0,63,0.00,,,0.00,,2013-04-13 12:08:00,
2013-04-13 07:14:00,29.0,18.0,29.95,West,277,3.0,9.0,63,0.00,,,0.00,,2013-04-13 12:14:00,
2013-04-13 07:24:00,29.0,18.0,29.95,West,277,3.0,9.0,63,0.00,,,0.00,,2013-04-13 12:24:00,
2013-04-13 07:35:00,29.0,18.0,29.95,West,277,3.0,9.0,63,0.00,,,0.00,,2013-04-13 12:35:00,
2013-04-13 07:45:00,29.0,18.0,29.95,West,277,3.0,9.0,63,0.00,,,0.00,,2013-04-13 12:45:00,
2013-04-13 08:06:00,31.0,19.0,29.98,WNW,292,3.0,10.0,61,0.00,,,0.00,,2013-04-13 13:06:00,
2013-04-13 08:15:00,31.0,19.0,29.98,WNW,292,3.0,10.0,61,0.00,,,0.00,,2013-04-13 13:15:00,
2013-04-13 08:27:00,32.0,19.0,29.98,North,4,2.0,10.0,59,0.00,,,0.00,,2013-04-13 13:27:00,
2013-04-13 08:34:00,33.0,19.0,29.98,NW,305,9.0,13.0,56,0.00,,,0.00,,2013-04-13 13:34:00,
2013-04-13 08:47:00,33.0,19.0,29.98,NW,305,9.0,13.0,56,0.00,,,0.00,,2013-04-13 13:47:00,
2013-04-13 08:53:00,33.0,19.0,29.98,NW,305,9.0,13.0,56,0.00,,,0.00,,2013-04-13 13:53:00,
2013-04-13 09:04:00,33.0,19.0,29.98,NW,305,9.0,13.0,56,0.00,,,0.00,,2013-04-13 14:04:00,
2013-04-13 09:14:00,33.0,19.0,29.98,NW,305,9.0,13.0,56,0.00,,,0.00,,2013-04-13 14:14:00,